Find CE-SAT-IIB

NORAD ID: 46818 Int'l Des: 2020-077 Owner: CANON Country: J operational
LEOCIRCULARRETROGRADE

当前视图

正在加载3D地球...

关于 CE-SAT-IIB

正在加载描述...

即将过境

Passes for default location (London). Set your location on the main map for personalized predictions.

高度历史

Loading altitude history...

两行轨道根数

1 46818U 20077F 26150.20932809 .00163606 12394-4 41359-3 0 9990
2 46818 97.2021 231.7733 0004722 199.7173 160.3922 15.95555663312412
Epoch: May 30, 2026 • Age: 7 hours

当前状态

高度 313.9 km
速度 7.72 km/s
星下点 -80.08°S, 153.04°W
发射日期 Oct 28, 2020
运行时间 5.5 years
类型 other

技术详情

分类 Payload
质量 35.00 kg
干质量 35.00 kg
总质量 35.00 kg
长度 0.90 m
直径 0.50 m
跨度 0.90 m
形状 Box
制造商 CANON
平台类型 CE-SAT
阶段状态 In Orbit
所有者/国家 CANON/J

Most Searched